Year,Month,Day,Hour,Minute,Value (Times are PST for temperature in C)
2020,05,05,00,00,8.70
2020,05,05,00,01,8.70
2020,05,05,00,02,8.70
2020,05,05,00,03,8.70
2020,05,05,00,04,8.70
2020,05,05,00,05,8.70
2020,05,05,00,06,8.70
2020,05,05,00,07,8.70
2020,05,05,00,08,8.70
2020,05,05,00,09,8.60
2020,05,05,00,10,8.60
2020,05,05,00,11,8.60
2020,05,05,00,12,8.60
2020,05,05,00,13,8.60
2020,05,05,00,14,8.60
2020,05,05,00,15,8.60
2020,05,05,00,16,8.60
2020,05,05,00,17,8.60
2020,05,05,00,18,8.60
2020,05,05,00,19,8.60
2020,05,05,00,20,8.60
2020,05,05,00,21,8.60
2020,05,05,00,22,8.60
2020,05,05,00,23,8.60
2020,05,05,00,24,8.60
2020,05,05,00,25,8.60
2020,05,05,00,26,8.60
2020,05,05,00,27,8.60
2020,05,05,00,28,8.60
2020,05,05,00,29,8.50
2020,05,05,00,30,8.50
2020,05,05,00,31,8.50
2020,05,05,00,32,8.50
2020,05,05,00,33,8.50
2020,05,05,00,34,8.50
2020,05,05,00,35,8.50
2020,05,05,00,36,8.40
2020,05,05,00,37,8.40
2020,05,05,00,38,8.40
2020,05,05,00,39,8.40
2020,05,05,00,40,8.40
2020,05,05,00,41,8.40
2020,05,05,00,42,8.40
2020,05,05,00,43,8.40
2020,05,05,00,44,8.30
2020,05,05,00,45,8.30
2020,05,05,00,46,8.30
2020,05,05,00,47,8.30
2020,05,05,00,48,8.30
2020,05,05,00,49,8.30
2020,05,05,00,50,8.30
2020,05,05,00,51,8.20
2020,05,05,00,52,8.20
2020,05,05,00,53,8.20
2020,05,05,00,54,8.20
2020,05,05,00,55,8.20
2020,05,05,00,56,8.10
2020,05,05,00,57,8.10
2020,05,05,00,58,8.10
2020,05,05,00,59,8.10
2020,05,05,01,00,8.10
2020,05,05,01,01,8.10
2020,05,05,01,02,8.00
2020,05,05,01,03,8.00
2020,05,05,01,04,8.00
2020,05,05,01,05,8.00
2020,05,05,01,06,8.00
2020,05,05,01,07,8.00
2020,05,05,01,08,8.00
2020,05,05,01,09,8.00
2020,05,05,01,10,8.00
2020,05,05,01,11,7.90
2020,05,05,01,12,7.90
2020,05,05,01,13,7.90
2020,05,05,01,14,7.90
2020,05,05,01,15,7.90
2020,05,05,01,16,7.90
2020,05,05,01,17,7.90
2020,05,05,01,18,7.90
2020,05,05,01,19,7.90
2020,05,05,01,20,7.90
2020,05,05,01,21,7.80
2020,05,05,01,22,7.80
2020,05,05,01,23,7.80
2020,05,05,01,24,7.80
2020,05,05,01,25,7.80
2020,05,05,01,26,7.80
2020,05,05,01,27,7.80
2020,05,05,01,28,7.80
2020,05,05,01,29,7.80
2020,05,05,01,30,7.80
2020,05,05,01,31,7.80
2020,05,05,01,32,7.70
2020,05,05,01,33,7.70
2020,05,05,01,34,7.70
2020,05,05,01,35,7.70
2020,05,05,01,36,7.70
2020,05,05,01,37,7.70
2020,05,05,01,38,7.70
2020,05,05,01,39,7.70
2020,05,05,01,40,7.70
2020,05,05,01,41,7.70
2020,05,05,01,42,7.70
2020,05,05,01,43,7.60
2020,05,05,01,44,7.60
2020,05,05,01,45,7.60
2020,05,05,01,46,7.60
2020,05,05,01,47,7.60
2020,05,05,01,48,7.60
2020,05,05,01,49,7.60
2020,05,05,01,50,7.60
2020,05,05,01,51,7.60
2020,05,05,01,52,7.60
2020,05,05,01,53,7.60
2020,05,05,01,54,7.60
2020,05,05,01,55,7.60
2020,05,05,01,56,7.50
2020,05,05,01,57,7.50
2020,05,05,01,58,7.60
2020,05,05,01,59,7.60
2020,05,05,02,00,7.50
2020,05,05,02,01,7.60
2020,05,05,02,02,7.60
2020,05,05,02,03,7.60
2020,05,05,02,04,7.60
2020,05,05,02,05,7.60
2020,05,05,02,06,7.60
2020,05,05,02,07,7.60
2020,05,05,02,08,7.60
2020,05,05,02,09,7.60
2020,05,05,02,10,7.60
2020,05,05,02,11,7.60
2020,05,05,02,12,7.60
2020,05,05,02,13,7.60
2020,05,05,02,14,7.60
2020,05,05,02,15,7.60
2020,05,05,02,16,7.60
2020,05,05,02,17,7.70
2020,05,05,02,18,7.70
2020,05,05,02,19,7.70
2020,05,05,02,20,7.70
2020,05,05,02,21,7.70
2020,05,05,02,22,7.70
2020,05,05,02,23,7.70
2020,05,05,02,24,7.70
2020,05,05,02,25,7.70
2020,05,05,02,26,7.70
2020,05,05,02,27,7.70
2020,05,05,02,28,7.70
2020,05,05,02,29,7.70
2020,05,05,02,30,7.70
2020,05,05,02,31,7.70
2020,05,05,02,32,7.70
2020,05,05,02,33,7.70
2020,05,05,02,34,7.70
2020,05,05,02,35,7.70
2020,05,05,02,36,7.70
2020,05,05,02,37,7.70
2020,05,05,02,38,7.70
2020,05,05,02,39,7.70
2020,05,05,02,40,7.70
2020,05,05,02,41,7.70
2020,05,05,02,42,7.70
2020,05,05,02,43,7.80
2020,05,05,02,44,7.80
2020,05,05,02,45,7.80
2020,05,05,02,46,7.80
2020,05,05,02,47,7.80
2020,05,05,02,48,7.80
2020,05,05,02,49,7.80
2020,05,05,02,50,7.80
2020,05,05,02,51,7.80
2020,05,05,02,52,7.80
2020,05,05,02,53,7.80
2020,05,05,02,54,7.80
2020,05,05,02,55,7.80
2020,05,05,02,56,7.80
2020,05,05,02,57,7.80
2020,05,05,02,58,7.80
2020,05,05,02,59,7.80
2020,05,05,03,00,7.80
2020,05,05,03,01,7.80
2020,05,05,03,02,7.80
2020,05,05,03,03,7.80
2020,05,05,03,04,7.80
2020,05,05,03,05,7.80
2020,05,05,03,06,7.80
2020,05,05,03,07,7.80
2020,05,05,03,08,7.80
2020,05,05,03,09,7.80
2020,05,05,03,10,7.80
2020,05,05,03,11,7.80
2020,05,05,03,12,7.80
2020,05,05,03,13,7.80
2020,05,05,03,14,7.80
2020,05,05,03,15,7.80
2020,05,05,03,16,7.80
2020,05,05,03,17,7.80
2020,05,05,03,18,7.80
2020,05,05,03,19,7.80
2020,05,05,03,20,7.80
2020,05,05,03,21,7.80
2020,05,05,03,22,7.80
2020,05,05,03,23,7.80
2020,05,05,03,24,7.80
2020,05,05,03,25,7.80
2020,05,05,03,26,7.80
2020,05,05,03,27,7.80
2020,05,05,03,28,7.80
2020,05,05,03,29,7.80
2020,05,05,03,30,7.80
2020,05,05,03,31,7.70
2020,05,05,03,32,7.70
2020,05,05,03,33,7.70
2020,05,05,03,34,7.70
2020,05,05,03,35,7.70
2020,05,05,03,36,7.70
2020,05,05,03,37,7.70
2020,05,05,03,38,7.70
2020,05,05,03,39,7.70
2020,05,05,03,40,7.70
2020,05,05,03,41,7.70
2020,05,05,03,42,7.70
2020,05,05,03,43,7.70
2020,05,05,03,44,7.70
2020,05,05,03,45,7.70
2020,05,05,03,46,7.70
2020,05,05,03,47,7.70
2020,05,05,03,48,7.70
2020,05,05,03,49,7.70
2020,05,05,03,50,7.70
2020,05,05,03,51,7.70
2020,05,05,03,52,7.70
2020,05,05,03,53,7.70
2020,05,05,03,54,7.70
2020,05,05,03,55,7.70
2020,05,05,03,56,7.70
2020,05,05,03,57,7.70
2020,05,05,03,58,7.60
2020,05,05,03,59,7.60
2020,05,05,04,00,7.60
2020,05,05,04,01,7.60
2020,05,05,04,02,7.60
2020,05,05,04,03,7.60
2020,05,05,04,04,7.60
2020,05,05,04,05,7.60
2020,05,05,04,06,7.50
2020,05,05,04,07,7.50
2020,05,05,04,08,7.50
2020,05,05,04,09,7.50
2020,05,05,04,10,7.50
2020,05,05,04,11,7.40
2020,05,05,04,12,7.40
2020,05,05,04,13,7.40
2020,05,05,04,14,7.40
2020,05,05,04,15,7.40
2020,05,05,04,16,7.40
2020,05,05,04,17,7.40
2020,05,05,04,18,7.40
2020,05,05,04,19,7.40
2020,05,05,04,20,7.40
2020,05,05,04,21,7.40
2020,05,05,04,22,7.40
2020,05,05,04,23,7.40
2020,05,05,04,24,7.40
2020,05,05,04,25,7.40
2020,05,05,04,26,7.40
2020,05,05,04,27,7.40
2020,05,05,04,28,7.40
2020,05,05,04,29,7.30
2020,05,05,04,30,7.30
2020,05,05,04,31,7.30
2020,05,05,04,32,7.30
2020,05,05,04,33,7.30
2020,05,05,04,34,7.30
2020,05,05,04,35,7.30
2020,05,05,04,36,7.30
2020,05,05,04,37,7.30
2020,05,05,04,38,7.30
2020,05,05,04,39,7.30
2020,05,05,04,40,7.30
2020,05,05,04,41,7.30
2020,05,05,04,42,7.30
2020,05,05,04,43,7.30
2020,05,05,04,44,7.30
2020,05,05,04,45,7.30
2020,05,05,04,46,7.30
2020,05,05,04,47,7.30
2020,05,05,04,48,7.30
2020,05,05,04,49,7.20
2020,05,05,04,50,7.20
2020,05,05,04,51,7.20
2020,05,05,04,52,7.20
2020,05,05,04,53,7.20
2020,05,05,04,54,7.20
2020,05,05,04,55,7.20
2020,05,05,04,56,7.20
2020,05,05,04,57,7.20
2020,05,05,04,58,7.10
2020,05,05,04,59,7.10
2020,05,05,05,00,7.10
2020,05,05,05,01,7.10
2020,05,05,05,02,7.10
2020,05,05,05,03,7.10
2020,05,05,05,04,7.10
2020,05,05,05,05,7.10
2020,05,05,05,06,7.10
2020,05,05,05,07,7.00
2020,05,05,05,08,7.00
2020,05,05,05,09,7.00
2020,05,05,05,10,7.00
2020,05,05,05,11,7.00
2020,05,05,05,12,6.90
2020,05,05,05,13,6.90
2020,05,05,05,14,6.90
2020,05,05,05,15,6.90
2020,05,05,05,16,6.90
2020,05,05,05,17,6.90
2020,05,05,05,18,6.90
2020,05,05,05,19,6.80
2020,05,05,05,20,6.80
2020,05,05,05,21,6.80
2020,05,05,05,22,6.80
2020,05,05,05,23,6.80
2020,05,05,05,24,6.80
2020,05,05,05,25,6.80
2020,05,05,05,26,6.70
2020,05,05,05,27,6.70
2020,05,05,05,28,6.70
2020,05,05,05,29,6.70
2020,05,05,05,30,6.70
2020,05,05,05,31,6.70
2020,05,05,05,32,6.70
2020,05,05,05,33,6.60
2020,05,05,05,34,6.60
2020,05,05,05,35,6.60
2020,05,05,05,36,6.60
2020,05,05,05,37,6.60
2020,05,05,05,38,6.60
2020,05,05,05,39,6.50
2020,05,05,05,40,6.50
2020,05,05,05,41,6.50
2020,05,05,05,42,6.50
2020,05,05,05,43,6.50
2020,05,05,05,44,6.50
2020,05,05,05,45,6.40
2020,05,05,05,46,6.40
2020,05,05,05,47,6.40
2020,05,05,05,48,6.40
2020,05,05,05,49,6.40
2020,05,05,05,50,6.40
2020,05,05,05,51,6.40
2020,05,05,05,52,6.40
2020,05,05,05,53,6.30
2020,05,05,05,54,6.30
2020,05,05,05,55,6.30
2020,05,05,05,56,6.30
2020,05,05,05,57,6.30
2020,05,05,05,58,6.30
2020,05,05,05,59,6.30
2020,05,05,06,00,6.30
2020,05,05,06,01,6.30
2020,05,05,06,02,6.20
2020,05,05,06,03,6.20
2020,05,05,06,04,6.20
2020,05,05,06,05,6.20
2020,05,05,06,06,6.20
2020,05,05,06,07,6.20
2020,05,05,06,08,6.20
2020,05,05,06,09,6.20
2020,05,05,06,10,6.20
2020,05,05,06,11,6.20
2020,05,05,06,12,6.10
2020,05,05,06,13,6.10
2020,05,05,06,14,6.10
2020,05,05,06,15,6.10
2020,05,05,06,16,6.10
2020,05,05,06,17,6.10
2020,05,05,06,18,6.10
2020,05,05,06,19,6.10
2020,05,05,06,20,6.10
2020,05,05,06,21,6.10
2020,05,05,06,22,6.10
2020,05,05,06,23,6.10
2020,05,05,06,24,6.10
2020,05,05,06,25,6.00
2020,05,05,06,26,6.00
2020,05,05,06,27,6.00
2020,05,05,06,28,6.00
2020,05,05,06,29,6.00
2020,05,05,06,30,6.00
2020,05,05,06,31,6.00
2020,05,05,06,32,6.00
2020,05,05,06,33,6.00
2020,05,05,06,34,6.00
2020,05,05,06,35,6.00
2020,05,05,06,36,6.00
2020,05,05,06,37,6.00
2020,05,05,06,38,6.00
2020,05,05,06,39,6.00
2020,05,05,06,40,6.00
2020,05,05,06,41,6.00
2020,05,05,06,42,6.00
2020,05,05,06,43,6.00
2020,05,05,06,44,6.00
2020,05,05,06,45,6.00
2020,05,05,06,46,6.00
2020,05,05,06,47,6.00
2020,05,05,06,48,6.00
2020,05,05,06,49,6.00
2020,05,05,06,50,6.00
2020,05,05,06,51,6.00
2020,05,05,06,52,6.10
2020,05,05,06,53,6.10
2020,05,05,06,54,6.10
2020,05,05,06,55,6.10
2020,05,05,06,56,6.10
2020,05,05,06,57,6.10
2020,05,05,06,58,6.10
2020,05,05,06,59,6.10
2020,05,05,07,00,6.10
2020,05,05,07,01,6.10
2020,05,05,07,02,6.10
2020,05,05,07,03,6.20
2020,05,05,07,04,6.20
2020,05,05,07,05,6.20
2020,05,05,07,06,6.20
2020,05,05,07,07,6.20
2020,05,05,07,08,6.30
2020,05,05,07,09,6.30
2020,05,05,07,10,6.30
2020,05,05,07,11,6.30
2020,05,05,07,12,6.30
2020,05,05,07,13,6.30
2020,05,05,07,14,6.30
2020,05,05,07,15,6.40
2020,05,05,07,16,6.40
2020,05,05,07,17,6.40
2020,05,05,07,18,6.40
2020,05,05,07,19,6.40
2020,05,05,07,20,6.40
2020,05,05,07,21,6.40
2020,05,05,07,22,6.40
2020,05,05,07,23,6.50
2020,05,05,07,24,6.50
2020,05,05,07,25,6.50
2020,05,05,07,26,6.50
2020,05,05,07,27,6.60
2020,05,05,07,28,6.60
2020,05,05,07,29,6.60
2020,05,05,07,30,6.60
2020,05,05,07,31,6.60
2020,05,05,07,32,6.60
2020,05,05,07,33,6.60
2020,05,05,07,34,6.60
2020,05,05,07,35,6.60
2020,05,05,07,36,6.70
2020,05,05,07,37,6.70
2020,05,05,07,38,6.70
2020,05,05,07,39,6.70
2020,05,05,07,40,6.70
2020,05,05,07,41,6.70
2020,05,05,07,42,6.70
2020,05,05,07,43,6.70
2020,05,05,07,44,6.70
2020,05,05,07,45,6.80
2020,05,05,07,46,6.80
2020,05,05,07,47,6.80
2020,05,05,07,48,6.80
2020,05,05,07,49,6.80
2020,05,05,07,50,6.80
2020,05,05,07,51,6.80
2020,05,05,07,52,6.80
2020,05,05,07,53,6.80
2020,05,05,07,54,6.90
2020,05,05,07,55,6.90
2020,05,05,07,56,6.90
2020,05,05,07,57,7.00
2020,05,05,07,58,7.00
2020,05,05,07,59,7.10
2020,05,05,08,00,7.10
2020,05,05,08,01,7.20
2020,05,05,08,02,7.20
2020,05,05,08,03,7.20
2020,05,05,08,04,7.20
2020,05,05,08,05,7.20
2020,05,05,08,06,7.20
2020,05,05,08,07,7.20
2020,05,05,08,08,7.30
2020,05,05,08,09,7.30
2020,05,05,08,10,7.30
2020,05,05,08,11,7.30
2020,05,05,08,12,7.40
2020,05,05,08,13,7.40
2020,05,05,08,14,7.50
2020,05,05,08,15,7.50
2020,05,05,08,16,7.60
2020,05,05,08,17,7.60
2020,05,05,08,18,7.60
2020,05,05,08,19,7.60
2020,05,05,08,20,7.70
2020,05,05,08,21,7.70
2020,05,05,08,22,7.70
2020,05,05,08,23,7.70
2020,05,05,08,24,7.70
2020,05,05,08,25,7.80
2020,05,05,08,26,7.80
2020,05,05,08,27,7.80
2020,05,05,08,28,7.80
2020,05,05,08,29,7.90
2020,05,05,08,30,7.90
2020,05,05,08,31,7.90
2020,05,05,08,32,7.90
2020,05,05,08,33,7.90
2020,05,05,08,34,7.90
2020,05,05,08,35,7.90
2020,05,05,08,36,7.90
2020,05,05,08,37,8.00
2020,05,05,08,38,8.00
2020,05,05,08,39,8.00
2020,05,05,08,40,8.00
2020,05,05,08,41,8.00
2020,05,05,08,42,8.00
2020,05,05,08,43,8.00
2020,05,05,08,44,8.00
2020,05,05,08,45,8.00
2020,05,05,08,46,8.00
2020,05,05,08,47,8.00
2020,05,05,08,48,8.00
2020,05,05,08,49,8.10
2020,05,05,08,50,8.10
2020,05,05,08,51,8.10
2020,05,05,08,52,8.10
2020,05,05,08,53,8.10
2020,05,05,08,54,8.20
2020,05,05,08,55,8.20
2020,05,05,08,56,8.20
2020,05,05,08,57,8.20
2020,05,05,08,58,8.30
2020,05,05,08,59,8.30
2020,05,05,09,00,8.30
2020,05,05,09,01,8.30
2020,05,05,09,02,8.30
2020,05,05,09,03,8.30
2020,05,05,09,04,8.30
2020,05,05,09,05,8.30
2020,05,05,09,06,8.20
2020,05,05,09,07,8.20
2020,05,05,09,08,8.20
2020,05,05,09,09,8.20
2020,05,05,09,10,8.20
2020,05,05,09,11,8.20
2020,05,05,09,12,8.20
2020,05,05,09,13,8.20
2020,05,05,09,14,8.20
2020,05,05,09,15,8.20
2020,05,05,09,16,8.20
2020,05,05,09,17,8.20
2020,05,05,09,18,8.20
2020,05,05,09,19,8.20
2020,05,05,09,20,8.20
2020,05,05,09,21,8.30
2020,05,05,09,22,8.30
2020,05,05,09,23,8.30
2020,05,05,09,24,8.30
2020,05,05,09,25,8.30
2020,05,05,09,26,8.30
2020,05,05,09,27,8.30
2020,05,05,09,28,8.30
2020,05,05,09,29,8.30
2020,05,05,09,30,8.30
2020,05,05,09,31,8.30
2020,05,05,09,32,8.30
2020,05,05,09,33,8.30
2020,05,05,09,34,8.30
2020,05,05,09,35,8.30
2020,05,05,09,36,8.40
2020,05,05,09,37,8.40
2020,05,05,09,38,8.40
2020,05,05,09,39,8.40
2020,05,05,09,40,8.40
2020,05,05,09,41,8.40
2020,05,05,09,42,8.40
2020,05,05,09,43,8.40
2020,05,05,09,44,8.40
2020,05,05,09,45,8.40
2020,05,05,09,46,8.50
2020,05,05,09,47,8.50
2020,05,05,09,48,8.50
2020,05,05,09,49,8.50
2020,05,05,09,50,8.60
2020,05,05,09,51,8.60
2020,05,05,09,52,8.60
2020,05,05,09,53,8.60
2020,05,05,09,54,8.60
2020,05,05,09,55,8.60
2020,05,05,09,56,8.60
2020,05,05,09,57,8.60
2020,05,05,09,58,8.70
2020,05,05,09,59,8.70
2020,05,05,10,00,8.70
2020,05,05,10,01,8.70
2020,05,05,10,02,8.70
2020,05,05,10,03,8.70
2020,05,05,10,04,8.70
2020,05,05,10,05,8.70
2020,05,05,10,06,8.70
2020,05,05,10,07,8.80
2020,05,05,10,08,8.80
2020,05,05,10,09,8.80
2020,05,05,10,10,8.80
2020,05,05,10,11,8.80
2020,05,05,10,12,8.80
2020,05,05,10,13,8.80
2020,05,05,10,14,8.80
2020,05,05,10,15,8.90
2020,05,05,10,16,8.90
2020,05,05,10,17,8.90
2020,05,05,10,18,8.90
2020,05,05,10,19,8.90
2020,05,05,10,20,8.90
2020,05,05,10,21,9.00
2020,05,05,10,22,9.00
2020,05,05,10,23,9.10
2020,05,05,10,24,9.10
2020,05,05,10,25,9.10
2020,05,05,10,26,9.10
2020,05,05,10,27,9.10
2020,05,05,10,28,9.10
2020,05,05,10,29,9.20
2020,05,05,10,30,9.20
2020,05,05,10,31,9.20
2020,05,05,10,32,9.20
2020,05,05,10,33,9.20
2020,05,05,10,34,9.20
2020,05,05,10,35,9.20
2020,05,05,10,36,9.30
2020,05,05,10,37,9.30
2020,05,05,10,38,9.30
2020,05,05,10,39,9.30
2020,05,05,10,40,9.30
2020,05,05,10,41,9.30
2020,05,05,10,42,9.40
2020,05,05,10,43,9.40
2020,05,05,10,44,9.40
2020,05,05,10,45,9.40
2020,05,05,10,46,9.40
2020,05,05,10,47,9.40
2020,05,05,10,48,9.50
2020,05,05,10,49,9.50
2020,05,05,10,50,9.50
2020,05,05,10,51,9.60
2020,05,05,10,52,9.60
2020,05,05,10,53,9.60
2020,05,05,10,54,9.70
2020,05,05,10,55,9.70
2020,05,05,10,56,9.70
2020,05,05,10,57,9.80
2020,05,05,10,58,9.80
2020,05,05,10,59,9.80
2020,05,05,11,00,9.90
2020,05,05,11,01,9.90
2020,05,05,11,02,10.00
2020,05,05,11,03,10.00
2020,05,05,11,04,10.00
2020,05,05,11,05,10.10
2020,05,05,11,06,10.10
2020,05,05,11,07,10.10
2020,05,05,11,08,10.20
2020,05,05,11,09,10.20
2020,05,05,11,10,10.20
2020,05,05,11,11,10.20
2020,05,05,11,12,10.20
2020,05,05,11,13,10.30
2020,05,05,11,14,10.30
2020,05,05,11,15,10.30
2020,05,05,11,16,10.30
2020,05,05,11,17,10.30
2020,05,05,11,18,10.40
2020,05,05,11,19,10.40
2020,05,05,11,20,10.40
2020,05,05,11,21,10.40
2020,05,05,11,22,10.40
2020,05,05,11,23,10.50
2020,05,05,11,24,10.50
2020,05,05,11,25,10.60
2020,05,05,11,26,10.60
2020,05,05,11,27,10.60
2020,05,05,11,28,10.60
2020,05,05,11,29,10.70
2020,05,05,11,30,10.70
2020,05,05,11,31,10.70
2020,05,05,11,32,10.80
2020,05,05,11,33,10.80
2020,05,05,11,34,10.90
2020,05,05,11,35,10.90
2020,05,05,11,36,10.90
2020,05,05,11,37,11.00
2020,05,05,11,38,11.00
2020,05,05,11,39,11.00
2020,05,05,11,40,11.10
2020,05,05,11,41,11.10
2020,05,05,11,42,11.10
2020,05,05,11,43,11.10
2020,05,05,11,44,11.10
2020,05,05,11,45,11.10
2020,05,05,11,46,11.10
2020,05,05,11,47,11.10
2020,05,05,11,48,11.20
2020,05,05,11,49,11.20
2020,05,05,11,50,11.20
2020,05,05,11,51,11.20
2020,05,05,11,52,11.30
2020,05,05,11,53,11.30
2020,05,05,11,54,11.30
2020,05,05,11,55,11.40
2020,05,05,11,56,11.40
2020,05,05,11,57,11.40
2020,05,05,11,58,11.50
2020,05,05,11,59,11.60
2020,05,05,12,00,11.60
2020,05,05,12,01,11.60
2020,05,05,12,02,11.70
2020,05,05,12,03,11.70
2020,05,05,12,04,11.80
2020,05,05,12,05,11.80
2020,05,05,12,06,11.80
2020,05,05,12,07,11.90
2020,05,05,12,08,11.90
2020,05,05,12,09,12.00
2020,05,05,12,10,12.00
2020,05,05,12,11,12.10
2020,05,05,12,12,12.10
2020,05,05,12,13,12.10
2020,05,05,12,14,12.20
2020,05,05,12,15,12.20
2020,05,05,12,16,12.30
2020,05,05,12,17,12.30
2020,05,05,12,18,12.40
2020,05,05,12,19,12.40
2020,05,05,12,20,12.50
2020,05,05,12,21,12.60
2020,05,05,12,22,12.60
2020,05,05,12,23,12.60
2020,05,05,12,24,12.70
2020,05,05,12,25,12.70
2020,05,05,12,26,12.70
2020,05,05,12,27,12.70
2020,05,05,12,28,12.70
2020,05,05,12,29,12.70
2020,05,05,12,30,12.70
2020,05,05,12,31,12.70
2020,05,05,12,32,12.70
2020,05,05,12,33,12.70
2020,05,05,12,34,12.80
2020,05,05,12,35,12.80
2020,05,05,12,36,12.80
2020,05,05,12,37,12.80
2020,05,05,12,38,12.90
2020,05,05,12,39,12.90
2020,05,05,12,40,12.90
2020,05,05,12,41,13.00
2020,05,05,12,42,13.00
2020,05,05,12,43,13.00
2020,05,05,12,44,13.10
2020,05,05,12,45,13.10
2020,05,05,12,46,13.10
2020,05,05,12,47,13.20
2020,05,05,12,48,13.20
2020,05,05,12,49,13.20
2020,05,05,12,50,13.20
2020,05,05,12,51,13.20
2020,05,05,12,52,13.30
2020,05,05,12,53,13.30
2020,05,05,12,54,13.40
2020,05,05,12,55,13.40
2020,05,05,12,56,13.50
2020,05,05,12,57,13.50
2020,05,05,12,58,13.60
2020,05,05,12,59,13.70
2020,05,05,13,00,13.70
2020,05,05,13,01,13.70
2020,05,05,13,02,13.70
2020,05,05,13,03,13.70
2020,05,05,13,04,13.70
2020,05,05,13,05,13.80
2020,05,05,13,06,13.80
2020,05,05,13,07,13.80
2020,05,05,13,08,13.90
2020,05,05,13,09,13.90
2020,05,05,13,10,13.90
2020,05,05,13,11,14.00
2020,05,05,13,12,14.10
2020,05,05,13,13,14.10
2020,05,05,13,14,14.10
2020,05,05,13,15,14.10
2020,05,05,13,16,14.20
2020,05,05,13,17,14.20
2020,05,05,13,18,14.20
2020,05,05,13,19,14.20
2020,05,05,13,20,14.20
2020,05,05,13,21,14.30
2020,05,05,13,22,14.30
2020,05,05,13,23,14.30
2020,05,05,13,24,14.30
2020,05,05,13,25,14.30
2020,05,05,13,26,14.40
2020,05,05,13,27,14.40
2020,05,05,13,28,14.30
2020,05,05,13,29,14.30
2020,05,05,13,30,14.30
2020,05,05,13,31,14.20
2020,05,05,13,32,14.20
2020,05,05,13,33,14.10
2020,05,05,13,34,14.00
2020,05,05,13,35,14.00
2020,05,05,13,36,14.00
2020,05,05,13,37,13.90
2020,05,05,13,38,13.90
2020,05,05,13,39,13.90
2020,05,05,13,40,13.80
2020,05,05,13,41,13.80
2020,05,05,13,42,13.80
2020,05,05,13,43,13.80
2020,05,05,13,44,13.80
2020,05,05,13,45,13.80
2020,05,05,13,46,13.90
2020,05,05,13,47,13.90
2020,05,05,13,48,14.00
2020,05,05,13,49,14.00
2020,05,05,13,50,14.10
2020,05,05,13,51,14.10
2020,05,05,13,52,14.10
2020,05,05,13,53,14.20
2020,05,05,13,54,14.20
2020,05,05,13,55,14.30
2020,05,05,13,56,14.30
2020,05,05,13,57,14.40
2020,05,05,13,58,14.40
2020,05,05,13,59,14.40
2020,05,05,14,00,14.40
2020,05,05,14,01,14.40
2020,05,05,14,02,14.40
2020,05,05,14,03,14.40
2020,05,05,14,04,14.40
2020,05,05,14,05,14.30
2020,05,05,14,06,14.30
2020,05,05,14,07,14.30
2020,05,05,14,08,14.30
2020,05,05,14,09,14.30
2020,05,05,14,10,14.30
2020,05,05,14,11,14.30
2020,05,05,14,12,14.30
2020,05,05,14,13,14.30
2020,05,05,14,14,14.40
2020,05,05,14,15,14.40
2020,05,05,14,16,14.40
2020,05,05,14,17,14.40
2020,05,05,14,18,14.40
2020,05,05,14,19,14.40
2020,05,05,14,20,14.40
2020,05,05,14,21,14.40
2020,05,05,14,22,14.40
2020,05,05,14,23,14.40
2020,05,05,14,24,14.30
2020,05,05,14,25,14.30
2020,05,05,14,26,14.30
2020,05,05,14,27,14.30
2020,05,05,14,28,14.30
2020,05,05,14,29,14.30
2020,05,05,14,30,14.30
2020,05,05,14,31,14.40
2020,05,05,14,32,14.40
2020,05,05,14,33,14.50
2020,05,05,14,34,14.60
2020,05,05,14,35,14.60
2020,05,05,14,36,14.70
2020,05,05,14,37,14.70
2020,05,05,14,38,14.70
2020,05,05,14,39,14.70
2020,05,05,14,40,14.70
2020,05,05,14,41,14.70
2020,05,05,14,42,14.70
2020,05,05,14,43,14.70
2020,05,05,14,44,14.70
2020,05,05,14,45,14.70
2020,05,05,14,46,14.70
2020,05,05,14,47,14.70
2020,05,05,14,48,14.80
2020,05,05,14,49,14.80
2020,05,05,14,50,14.90
2020,05,05,14,51,15.00
2020,05,05,14,52,15.00
2020,05,05,14,53,15.10
2020,05,05,14,54,15.20
2020,05,05,14,55,15.30
2020,05,05,14,56,15.30
2020,05,05,14,57,15.40
2020,05,05,14,58,15.50
2020,05,05,14,59,15.60
2020,05,05,15,00,15.70
2020,05,05,15,01,15.80
2020,05,05,15,02,15.90
2020,05,05,15,03,16.00
2020,05,05,15,04,16.10
2020,05,05,15,05,16.10
2020,05,05,15,06,16.10
2020,05,05,15,07,16.10
2020,05,05,15,08,16.10
2020,05,05,15,09,16.00
2020,05,05,15,10,15.90
2020,05,05,15,11,15.90
2020,05,05,15,12,15.90
2020,05,05,15,13,16.00
2020,05,05,15,14,16.00
2020,05,05,15,15,16.00
2020,05,05,15,16,16.10
2020,05,05,15,17,16.10
2020,05,05,15,18,16.10
2020,05,05,15,19,16.10
2020,05,05,15,20,16.10
2020,05,05,15,21,16.10
2020,05,05,15,22,16.10
2020,05,05,15,23,16.10
2020,05,05,15,24,16.10
2020,05,05,15,25,16.20
2020,05,05,15,26,16.20
2020,05,05,15,27,16.30
2020,05,05,15,28,16.40
2020,05,05,15,29,16.40
2020,05,05,15,30,16.50
2020,05,05,15,31,16.60
2020,05,05,15,32,16.70
2020,05,05,15,33,16.70
2020,05,05,15,34,16.80
2020,05,05,15,35,16.80
2020,05,05,15,36,16.70
2020,05,05,15,37,16.70
2020,05,05,15,38,16.60
2020,05,05,15,39,16.60
2020,05,05,15,40,16.60
2020,05,05,15,41,16.50
2020,05,05,15,42,16.40
2020,05,05,15,43,16.30
2020,05,05,15,44,16.20
2020,05,05,15,45,16.10
2020,05,05,15,46,16.10
2020,05,05,15,47,16.10
2020,05,05,15,48,16.00
2020,05,05,15,49,16.00
2020,05,05,15,50,16.00
2020,05,05,15,51,16.00
2020,05,05,15,52,16.10
2020,05,05,15,53,16.10
2020,05,05,15,54,16.10
2020,05,05,15,55,16.10
2020,05,05,15,56,16.20
2020,05,05,15,57,16.20
2020,05,05,15,58,16.20
2020,05,05,15,59,16.20
2020,05,05,16,00,16.20
2020,05,05,16,01,16.10
2020,05,05,16,02,16.10
2020,05,05,16,03,16.00
2020,05,05,16,04,16.00
2020,05,05,16,05,16.10
2020,05,05,16,06,16.10
2020,05,05,16,07,16.10
2020,05,05,16,08,16.20
2020,05,05,16,09,16.20
2020,05,05,16,10,16.20
2020,05,05,16,11,16.30
2020,05,05,16,12,16.30
2020,05,05,16,13,16.30
2020,05,05,16,14,16.40
2020,05,05,16,15,16.40
2020,05,05,16,16,16.40
2020,05,05,16,17,16.50
2020,05,05,16,18,16.50
2020,05,05,16,19,16.60
2020,05,05,16,20,16.60
2020,05,05,16,21,16.60
2020,05,05,16,22,16.60
2020,05,05,16,23,16.60
2020,05,05,16,24,16.70
2020,05,05,16,25,16.60
2020,05,05,16,26,16.60
2020,05,05,16,27,16.60
2020,05,05,16,28,16.60
2020,05,05,16,29,16.60
2020,05,05,16,30,16.60
2020,05,05,16,31,16.50
2020,05,05,16,32,16.50
2020,05,05,16,33,16.50
2020,05,05,16,34,16.40
2020,05,05,16,35,16.40
2020,05,05,16,36,16.40
2020,05,05,16,37,16.40
2020,05,05,16,38,16.40
2020,05,05,16,39,16.30
2020,05,05,16,40,16.30
2020,05,05,16,41,16.30
2020,05,05,16,42,16.20
2020,05,05,16,43,16.20
2020,05,05,16,44,16.20
2020,05,05,16,45,16.20
2020,05,05,16,46,16.20
2020,05,05,16,47,16.20
2020,05,05,16,48,16.20
2020,05,05,16,49,16.20
2020,05,05,16,50,16.20
2020,05,05,16,51,16.20
2020,05,05,16,52,16.20
2020,05,05,16,53,16.20
2020,05,05,16,54,16.30
2020,05,05,16,55,16.30
2020,05,05,16,56,16.30
2020,05,05,16,57,16.30
2020,05,05,16,58,16.30
2020,05,05,16,59,16.30
2020,05,05,17,00,16.30
2020,05,05,17,01,16.30
2020,05,05,17,02,16.30
2020,05,05,17,03,16.30
2020,05,05,17,04,16.30
2020,05,05,17,05,16.30
2020,05,05,17,06,16.30
2020,05,05,17,07,16.30
2020,05,05,17,08,16.40
2020,05,05,17,09,16.40
2020,05,05,17,10,16.50
2020,05,05,17,11,16.50
2020,05,05,17,12,16.60
2020,05,05,17,13,16.70
2020,05,05,17,14,16.70
2020,05,05,17,15,16.80
2020,05,05,17,16,16.80
2020,05,05,17,17,16.90
2020,05,05,17,18,16.90
2020,05,05,17,19,16.90
2020,05,05,17,20,17.00
2020,05,05,17,21,17.00
2020,05,05,17,22,17.00
2020,05,05,17,23,17.10
2020,05,05,17,24,17.10
2020,05,05,17,25,17.10
2020,05,05,17,26,17.10
2020,05,05,17,27,17.10
2020,05,05,17,28,17.10
2020,05,05,17,29,17.20
2020,05,05,17,30,17.20
2020,05,05,17,31,17.20
2020,05,05,17,32,17.30
2020,05,05,17,33,17.30
2020,05,05,17,34,17.40
2020,05,05,17,35,17.50
2020,05,05,17,36,17.50
2020,05,05,17,37,17.60
2020,05,05,17,38,17.60
2020,05,05,17,39,17.70
2020,05,05,17,40,17.70
2020,05,05,17,41,17.70
2020,05,05,17,42,17.80
2020,05,05,17,43,17.80
2020,05,05,17,44,17.80
2020,05,05,17,45,17.80
2020,05,05,17,46,17.80
2020,05,05,17,47,17.80
2020,05,05,17,48,17.80